Stations météo

réclame
Mon MeteoGroup
Molina De Aragon, Espagne (8232): Température de l'air & dewpoint: 14.08.2018 22:00:00 - 20.08.2018 22:00:00 (CEST)Molina De Aragon, Espagne (8232): Vitesse du vent: 14.08.2018 22:00:00 - 20.08.2018 22:00:00 (CEST)Molina De Aragon, Espagne (8232): Direction du vent: 14.08.2018 22:00:00 - 20.08.2018 22:00:00 (CEST)Molina De Aragon, Espagne (8232): visibility: 14.08.2018 22:00:00 - 20.08.2018 22:00:00 (CEST)Molina De Aragon, Espagne (8232): Quantités de précipitations: 14.08.2018 22:00:00 - 20.08.2018 22:00:00 (CEST)
Date & Time tt [°C] td [°C] ff [km/h] ff [knt] dd vv [km] rr [mm]
20.08.2018 22:00:00 - - - - - - -
20.08.2018 21:00:00 24,5 10,7 4 2 NNE 14 0,0
20.08.2018 20:00:00 26,4 9,3 8 4 NNE 9 -
20.08.2018 19:00:00 27,7 8,5 5 3 N 19 0,0
20.08.2018 18:00:00 29,5 8,5 4 2 NNE 20 0,0
20.08.2018 17:00:00 29,6 9,7 5 3 WNW 20 -
20.08.2018 16:00:00 29,4 11,0 8 4 W 20 0,0
20.08.2018 15:00:00 28,4 9,6 5 3 S 20 0,0
20.08.2018 14:00:00 27,1 9,4 8 4 S 20 -
20.08.2018 13:00:00 26,2 11,5 8 4 S 20 0,0
20.08.2018 12:00:00 24,0 12,0 5 3 WNW 20 0,0
20.08.2018 11:00:00 20,7 12,1 4 2 WSW 20 -
20.08.2018 10:00:00 16,5 9,7 2 1 W 20 0,0
20.08.2018 09:00:00 12,6 8,3 2 1 ESE 20 0,0
20.08.2018 08:00:00 9,1 6,4 2 1 SE 20 -
20.08.2018 07:00:00 9,1 6,0 2 1 E 20 0,0
20.08.2018 06:00:00 9,7 6,0 0 0 N 19 0,0
20.08.2018 05:00:00 10,5 6,4 2 1 E 20 -
20.08.2018 04:00:00 11,3 6,6 0 0 N 20 0,0
20.08.2018 03:00:00 12,3 6,8 2 1 ENE 20 0,0
20.08.2018 02:00:00 13,5 7,0 2 1 SE 20 -
20.08.2018 01:00:00 15,1 7,4 2 1 ENE 20 0,0
20.08.2018 00:00:00 17,6 7,6 2 1 ESE 20 0,0
19.08.2018 23:00:00 19,9 7,9 5 3 E 20 -
19.08.2018 22:00:00 21,2 8,5 4 2 ENE 20 0,0
19.08.2018 21:00:00 23,4 9,0 4 2 NNE 18 0,0
19.08.2018 20:00:00 26,0 8,9 4 2 NNE 17 -
19.08.2018 19:00:00 27,8 6,5 5 3 ENE 20 0,0
19.08.2018 18:00:00 28,3 7,0 9 5 ENE 20 0,0
19.08.2018 17:00:00 28,5 5,3 8 4 E 19 -
19.08.2018 16:00:00 27,7 12,1 5 3 SE 20 0,0
19.08.2018 15:00:00 27,0 11,5 5 3 N 20 0,0
19.08.2018 14:00:00 26,0 12,1 4 2 NNE 20 -
19.08.2018 13:00:00 24,4 12,4 8 4 S 20 0,0
19.08.2018 12:00:00 22,9 12,8 4 2 NNW 20 0,0
19.08.2018 11:00:00 20,4 11,6 4 2 SE 20 -
19.08.2018 10:00:00 15,9 10,2 2 1 SSW 7 0,0
19.08.2018 09:00:00 11,6 8,1 2 1 W 12 0,0
19.08.2018 08:00:00 8,2 6,3 2 1 E 12 -
19.08.2018 07:00:00 8,2 6,0 2 1 ENE 18 0,0
19.08.2018 06:00:00 8,9 6,2 2 1 NE 17 0,0
19.08.2018 05:00:00 9,7 6,4 2 1 ESE 16 -
19.08.2018 04:00:00 10,7 6,4 2 1 E 18 0,0
19.08.2018 03:00:00 11,1 6,6 2 1 SE 10 0,0
19.08.2018 02:00:00 11,9 6,4 2 1 ESE 9 -
19.08.2018 01:00:00 13,6 6,5 2 1 ESE - 0,0
19.08.2018 00:00:00 15,3 6,6 2 1 SE 12 0,0
18.08.2018 23:00:00 16,8 6,9 2 1 E 20 -
18.08.2018 22:00:00 18,1 6,3 4 2 ENE 20 0,0
18.08.2018 21:00:00 19,8 7,5 4 2 NE 20 0,0
18.08.2018 20:00:00 22,1 8,6 5 3 NE 17 -
18.08.2018 19:00:00 24,9 10,7 5 3 NE 19 0,0
18.08.2018 18:00:00 26,0 11,4 8 4 NNE 20 0,0
18.08.2018 17:00:00 27,1 11,9 8 4 NNE 20 -
18.08.2018 16:00:00 26,4 12,1 8 4 N 20 0,0
18.08.2018 15:00:00 25,6 13,4 5 3 ENE 20 0,0
18.08.2018 14:00:00 24,4 13,0 5 3 N 20 -
18.08.2018 13:00:00 22,5 12,1 4 2 N 20 0,0
18.08.2018 12:00:00 20,6 12,3 5 3 N 20 0,0
18.08.2018 11:00:00 17,7 10,3 8 4 NNE 20 -
18.08.2018 10:00:00 15,9 10,0 5 3 NNE 20 0,0
18.08.2018 09:00:00 12,8 9,1 2 1 ENE 20 0,0
18.08.2018 08:00:00 10,5 8,1 2 1 NE 20 -
18.08.2018 07:00:00 11,0 8,2 4 2 E 20 0,0
18.08.2018 06:00:00 11,0 8,2 2 1 E 20 0,0
18.08.2018 05:00:00 11,0 8,2 2 1 ENE 20 -
18.08.2018 04:00:00 11,8 8,6 4 2 E 20 0,0
18.08.2018 03:00:00 12,9 9,2 8 4 E 20 0,0
18.08.2018 02:00:00 13,4 9,8 5 3 E 20 -
18.08.2018 01:00:00 13,5 9,9 5 3 ENE 20 0,0
18.08.2018 00:00:00 14,9 10,7 8 4 E 20 0,0
17.08.2018 23:00:00 16,2 10,9 4 2 E 20 -
17.08.2018 22:00:00 17,6 11,2 5 3 E 20 0,0
17.08.2018 21:00:00 19,3 11,3 4 2 NNE 18 0,0
17.08.2018 20:00:00 21,5 12,1 8 4 NNE 20 -
17.08.2018 19:00:00 23,0 12,0 8 4 ENE 20 0,0
17.08.2018 18:00:00 25,8 13,3 11 6 NNE 20 0,0
17.08.2018 17:00:00 26,1 13,6 8 4 NNE 20 -
17.08.2018 16:00:00 25,5 14,0 8 4 NE 20 0,0
17.08.2018 15:00:00 24,9 14,7 5 3 NNE 20 0,0
17.08.2018 14:00:00 24,3 13,5 8 4 N 20 -
17.08.2018 13:00:00 22,6 14,2 8 4 NNE 20 0,0
17.08.2018 12:00:00 20,5 13,2 9 5 E 20 0,0
17.08.2018 11:00:00 18,6 13,2 8 4 E 20 -
17.08.2018 10:00:00 17,6 13,3 9 5 ESE 20 0,0
17.08.2018 09:00:00 15,9 13,2 8 4 ESE 20 0,0
17.08.2018 08:00:00 13,5 11,7 2 1 SSW 20 -
17.08.2018 07:00:00 14,1 12,1 2 1 SSE 20 0,0
17.08.2018 06:00:00 15,2 12,7 4 2 ENE 20 0,0
17.08.2018 05:00:00 16,6 14,1 5 3 E 20 -
17.08.2018 04:00:00 16,5 12,6 8 4 E 20 0,0
17.08.2018 03:00:00 15,8 11,4 8 4 E 20 0,0
17.08.2018 02:00:00 15,6 10,8 2 1 ESE 20 -
17.08.2018 01:00:00 16,3 11,2 2 1 S 20 0,0
17.08.2018 00:00:00 16,5 10,8 2 1 NE 20 0,0
16.08.2018 23:00:00 17,2 10,8 9 5 ESE 20 -
16.08.2018 22:00:00 17,8 13,1 13 7 ESE 20 0,0
16.08.2018 21:00:00 19,5 12,7 18 10 ESE 20 0,0
16.08.2018 20:00:00 24,6 13,8 9 5 N 20 -
16.08.2018 19:00:00 27,1 10,3 8 4 WSW 20 0,0
16.08.2018 18:00:00 27,7 11,7 8 4 WNW 20 0,0
16.08.2018 17:00:00 27,1 12,3 9 5 WSW 20 -
16.08.2018 16:00:00 25,8 11,9 9 5 W 20 0,0
16.08.2018 15:00:00 25,1 11,6 9 5 W 20 0,0
16.08.2018 14:00:00 23,4 13,6 13 7 NW 20 -
16.08.2018 13:00:00 21,3 13,2 15 8 S 20 0,2
16.08.2018 12:00:00 20,9 11,8 5 3 SE 20 0,0
16.08.2018 11:00:00 20,3 12,3 8 4 SW 20 -
16.08.2018 10:00:00 19,2 13,4 9 5 WSW 7 0,2
16.08.2018 09:00:00 19,6 12,1 4 2 ENE 20 0,0
16.08.2018 08:00:00 19,5 14,7 4 2 SE 20 -
16.08.2018 07:00:00 18,9 14,4 2 1 NNW 20 0,0
16.08.2018 06:00:00 19,3 14,5 4 2 W 20 0,0
16.08.2018 05:00:00 19,8 13,7 2 1 N 20 -
16.08.2018 04:00:00 20,7 12,4 5 3 WNW 19 0,0
16.08.2018 03:00:00 20,7 15,5 2 1 E 20 0,0
16.08.2018 02:00:00 20,0 15,0 4 2 ESE 20 -
16.08.2018 01:00:00 20,8 15,6 4 2 S 20 0,0
16.08.2018 00:00:00 22,1 16,8 2 1 NNE 20 0,0
15.08.2018 23:00:00 22,7 15,0 9 5 E 20 -
15.08.2018 22:00:00 23,6 13,2 2 1 NE 18 0,0
15.08.2018 21:00:00 25,6 12,4 5 3 ENE 20 0,0
15.08.2018 20:00:00 27,6 12,4 4 2 NNE 20 -
15.08.2018 19:00:00 30,3 12,7 5 3 N 20 0,0
15.08.2018 18:00:00 29,7 9,2 11 6 W 20 0,0
15.08.2018 17:00:00 29,9 10,4 11 6 SW 20 -
15.08.2018 16:00:00 28,9 10,1 9 5 WNW 20 0,0
15.08.2018 15:00:00 29,6 11,2 9 5 SW 20 0,0
15.08.2018 14:00:00 28,7 9,9 5 3 W 20 -
15.08.2018 13:00:00 26,9 15,0 5 3 SE 20 0,0
15.08.2018 12:00:00 25,1 15,4 4 2 NE 20 0,0
15.08.2018 11:00:00 20,4 12,4 4 2 NNW 20 -
15.08.2018 10:00:00 16,7 10,3 2 1 SE 20 0,0
15.08.2018 09:00:00 13,0 9,3 2 1 ESE 20 0,0
15.08.2018 08:00:00 9,6 7,9 2 1 ENE 20 -
15.08.2018 07:00:00 9,7 7,8 2 1 SSE 20 0,0
15.08.2018 06:00:00 10,1 7,9 2 1 NNE 20 0,0
15.08.2018 05:00:00 10,9 7,8 2 1 E 20 -
15.08.2018 04:00:00 11,4 8,1 2 1 E 20 0,0
15.08.2018 03:00:00 12,0 8,3 2 1 ENE 20 0,0
15.08.2018 02:00:00 12,7 8,2 2 1 E 20 -
15.08.2018 01:00:00 13,9 8,5 2 1 E 20 0,0
15.08.2018 00:00:00 15,8 9,2 0 0 N 20 0,0
14.08.2018 23:00:00 17,7 9,6 4 2 E 20 -
14.08.2018 22:00:00 20,3 9,8 5 3 E 20 0,0

tt = Température de l'air
td = dewpoint
ff = Vitesse du vent
dd = Direction du vent
vv = visibility
rr = Quantités de précipitations

stations d'obs. à proximité